Powrót do katalogu

STARLINK-38094

AktywnyŁącznośćVLEO
NORAD 100027·PAYLOAD·🇺🇸 United States

Wystrzelony Jul 14, 2026 z Vandenberg Space Force Base

Loading…

Następne Przeloty (najbliższe 24 godziny)

TLE

ŚwieżeSource: Space-Track

Epoka: Sep 14, 2026, 14:59 UTC

1 A0027U 26160AC  26257.62468973 -.00512244  00000-0 -46221-2 0  9998
2 A0027  70.0010 211.2570 0005176 230.5187 129.5551 15.69385929 11076

Śledź STARLINK-38094 w czasie rzeczywistym z AllMySat

Download on the App Store